M0XDC Weather Reports


Display with metric or nautical units.
time (UTC)temp
F
wind
direction
speed
MPH
gust
MPH
rain 1hr
in
rain 24hr
in
rain mn
in
humidity
%
barometer
mb
20260505193005 53 44 0.0 2.0 0.00 0.00 0.00 69 1010.0
20260505191720 53 79 0.0 2.0 0.00 0.00 0.00 68 1009.8
20260505191433 53 72 1.0 2.0 0.00 0.00 0.00 68 1009.9
20260505190218 53 67 0.0 2.0 0.00 0.00 0.00 67 1009.6
20260505184503 54 70 0.0 4.0 0.00 0.00 0.00 66 1009.5
20260505184433 54 67 0.0 4.0 0.00 0.00 0.00 66 1009.6
20260505183004 54 63 1.0 6.0 0.00 0.00 0.00 65 1009.4
20260505181719 54 71 2.0 4.0 0.00 0.00 0.00 64 1009.5
20260505181433 54 69 2.0 4.0 0.00 0.00 0.00 65 1009.5
20260505180218 54 95 1.0 2.0 0.00 0.00 0.00 65 1009.6
20260505174503 55 58 0.0 2.0 0.00 0.00 0.00 63 1009.6
20260505174433 55 58 0.0 2.0 0.00 0.00 0.00 63 1009.4
20260505173005 55 71 1.0 2.0 0.00 0.00 0.00 63 1009.3
20260505171505 55 69 0.0 4.0 0.00 0.00 0.00 61 1009.3
20260505171433 55 73 0.0 4.0 0.00 0.00 0.00 62 1009.5
20260505170005 55 81 2.0 4.0 0.00 0.00 0.00 63 1009.6
20260505164505 56 91 2.0 4.0 0.00 0.00 0.00 63 1009.5
20260505164433 56 88 2.0 4.0 0.00 0.00 0.00 63 1009.5
20260505163003 56 61 2.0 8.0 0.00 0.00 0.00 60 1009.4
20260505161718 56 71 2.0 4.0 0.00 0.00 0.00 60 1009.5
20260505161433 56 68 2.0 4.0 0.00 0.00 0.00 61 1009.4
20260505151505 58 68 2.0 8.0 0.00 0.00 0.00 55 1009.7
20260505151433 58 69 2.0 9.0 0.00 0.00 0.00 55 1009.7
20260505124505 60 55 2.0 6.0 0.00 0.00 0.00 52 1010.0
20260505124433 60 58 2.0 6.0 0.00 0.00 0.00 52 1010.0
20260505123005 61 37 3.0 6.0 0.00 0.00 0.00 53 1010.0
20260505121503 62 76 2.0 11.0 0.00 0.00 0.00 48 1009.9
20260505121433 62 72 3.0 11.0 0.00 0.00 0.00 48 1009.9
20260505120005 62 42 2.0 4.0 0.00 0.00 0.00 52 1009.9
20260505114504 60 19 2.0 7.0 0.00 0.00 0.00 56 1010.1
20260505114433 60 24 3.0 7.0 0.00 0.00 0.00 54 1010.0
20260505113005 59 38 2.0 4.0 0.00 0.00 0.00 56 1009.9
20260505111719 59 54 3.0 8.0 0.00 0.00 0.00 57 1010.2
20260505111433 58 63 1.0 11.0 0.00 0.00 0.00 57 1010.4
20260505110220 60 39 2.0 8.0 0.00 0.00 0.00 54 1010.4
20260505101503 59 22 4.0 7.0 0.00 0.00 0.00 56 1010.9
20260505101433 59 24 2.0 6.0 0.00 0.00 0.00 58 1010.6
20260505100003 57 25 3.0 7.0 0.00 0.00 0.00 61 1010.8
20260505094503 58 345 2.0 7.0 0.00 0.00 0.00 63 1010.6
20260505094433 58 349 2.0 7.0 0.00 0.00 0.00 63 1011.0
20260505093004 57 349 2.0 6.0 0.00 0.00 0.00 66 1010.9
20260505091505 56 6 1.0 6.0 0.00 0.00 0.00 67 1010.9
20260505091433 56 10 2.0 6.0 0.00 0.00 0.00 67 1010.9
20260505090005 56 13 2.0 8.0 0.00 0.00 0.00 69 1011.0
20260505084505 56 350 2.0 7.0 0.00 0.00 0.00 67 1011.0
20260505084433 56 345 2.0 7.0 0.00 0.00 0.00 67 1011.2
20260505083003 55 37 2.0 8.0 0.00 0.00 0.00 70 1010.8
20260505081505 54 28 4.0 9.0 0.00 0.00 0.00 73 1011.0
20260505081433 54 34 2.0 9.0 0.00 0.00 0.00 72 1010.8
20260505080006 53 356 4.0 8.0 0.00 0.00 0.00 74 1011.2
20260505074433 52 28 2.0 6.0 0.00 0.00 0.00 75 1011.0
20260505073220 53 43 2.0 9.0 0.00 0.00 0.00 75 1011.1
20260505071503 53 10 1.0 8.0 0.00 0.00 0.00 74 1011.0
20260505071433 53 5 2.0 8.0 0.00 0.00 0.00 74 1011.0
20260505070005 52 38 4.0 9.0 0.00 0.00 0.00 75 1011.4
20260505064503 52 15 2.0 8.0 0.00 0.00 0.00 77 1011.3
20260505064433 52 18 2.0 8.0 0.00 0.00 0.00 77 1011.1
20260505063003 52 21 4.0 8.0 0.00 0.00 0.00 78 1011.2
20260505061503 51 6 0.0 6.0 0.00 0.00 0.00 80 1011.2
20260505061433 51 7 0.0 6.0 0.00 0.00 0.00 80 1011.3
20260505060005 51 340 0.0 4.0 0.00 0.00 0.00 82 1011.3
20260505054505 51 329 0.0 4.0 0.00 0.00 0.00 82 1011.4
20260505054433 51 327 1.0 4.0 0.00 0.00 0.00 83 1011.1
20260505053219 51 339 2.0 4.0 0.00 0.00 0.00 83 1011.4
20260505051503 50 13 1.0 2.0 0.00 0.00 0.00 84 1011.4
20260505051433 50 16 0.0 2.0 0.00 0.00 0.00 85 1011.5
20260505041505 48 45 0.0 2.0 0.00 0.00 0.00 88 1011.4
20260505041433 48 45 0.0 2.0 0.00 0.00 0.00 88 1011.4
20260505040004 48 0 0.0 0.0 0.00 0.00 0.00 88 1011.5
20260505034505 48 45 0.0 2.0 0.00 0.00 0.00 89 1011.4
20260505034433 48 45 0.0 2.0 0.00 0.00 0.00 89 1011.7
20260505033003 47 0 0.0 0.0 0.00 0.00 0.00 89 1011.8
20260505031503 47 45 0.0 2.0 0.00 0.00 0.00 89 1011.7
20260505031433 47 45 0.0 2.0 0.00 0.00 0.00 89 1011.6
20260505030005 47 0 0.0 0.0 0.00 0.00 0.00 89 1011.8
20260505024503 47 45 0.0 2.0 0.00 0.00 0.00 88 1012.0
20260505024433 47 45 0.0 2.0 0.00 0.00 0.00 88 1011.7
20260505023005 48 45 0.0 2.0 0.00 0.00 0.00 87 1011.5
20260505021503 49 66 1.0 4.0 0.00 0.00 0.00 86 1011.6
20260505021433 49 66 2.0 4.0 0.00 0.00 0.00 86 1011.8
20260505020218 49 55 2.0 4.0 0.00 0.00 0.00 86 1011.6
20260505014505 50 67 1.0 4.0 0.00 0.00 0.00 85 1012.0
20260505014433 50 67 1.0 4.0 0.00 0.00 0.00 85 1011.9
20260505013005 50 64 0.0 2.0 0.00 0.00 0.00 86 1012.1
20260505011505 50 50 1.0 4.0 0.00 0.00 0.00 85 1011.9
20260505011433 50 49 1.0 4.0 0.00 0.00 0.00 85 1012.1
20260505010220 50 73 2.0 4.0 0.00 0.00 0.00 86 1011.9
20260505004505 50 59 0.0 4.0 0.00 0.00 0.00 86 1012.0
20260505004433 50 59 2.0 4.0 0.00 0.00 0.00 86 1012.0
20260505003004 50 51 2.0 4.0 0.00 0.00 0.00 87 1012.2
20260505001503 50 53 2.0 6.0 0.00 0.00 0.00 86 1012.2
20260505001433 50 56 3.0 6.0 0.00 0.00 0.00 86 1012.6
20260505000005 50 48 2.0 6.0 0.00 0.00 0.00 87 1012.6
20260504234503 51 69 2.0 6.0 0.00 0.00 0.00 87 1012.8
20260504234433 51 68 2.0 6.0 0.00 0.00 0.00 87 1012.4
20260504233003 51 72 1.0 4.0 0.00 0.00 0.00 89 1012.5
20260504231503 51 60 1.0 4.0 0.00 0.00 0.00 90 1012.5
20260504231433 51 60 0.0 4.0 0.00 0.00 0.00 90 1012.7
20260504230003 52 73 1.0 4.0 0.00 0.00 0.00 90 1012.8
20260504224503 52 88 1.0 4.0 0.00 0.00 0.00 89 1012.6
20260504224433 52 89 2.0 4.0 0.00 0.00 0.00 89 1012.5
20260504223219 52 84 0.0 4.0 0.00 0.00 0.00 88 1012.7
20260504221505 52 82 2.0 4.0 0.00 0.00 0.00 88 1012.7
20260504221433 52 70 2.0 4.0 0.00 0.00 0.00 88 1012.9
20260504214505 52 70 2.0 6.0 0.00 0.00 0.00 88 1012.9
20260504214433 52 60 3.0 6.0 0.00 0.00 0.00 88 1012.8
20260504213216 53 74 2.0 6.0 0.00 0.00 0.00 88 1012.8
20260504211719 54 64 1.0 4.0 0.00 0.00 0.00 87 1012.7
20260504211433 54 57 2.0 4.0 0.00 0.00 0.00 86 1012.9
20260504210222 54 38 1.0 2.0 0.00 0.00 0.00 82 1012.7
20260504204719 54 41 1.0 2.0 0.00 0.00 0.00 82 1012.7
20260504204433 54 81 0.0 2.0 0.00 0.00 0.00 84 1012.6
20260504203005 54 90 1.0 2.0 0.00 0.00 0.00 85 1012.8
20260504201719 54 0 0.0 0.0 0.00 0.00 0.00 86 1012.7
20260504201433 54 90 0.0 2.0 0.00 0.00 0.00 86 1012.8
20260504200005 54 90 0.0 2.0 0.00 0.00 0.00 85 1012.4
20260504194505 54 90 0.0 2.0 0.00 0.00 0.00 85 1012.4
20260504194433 54 90 0.0 2.0 0.00 0.00 0.00 85 1012.5